C/2018 KJ3 ( Lemmon )

Japanese version
Home page
Updated on September 23, 2018

---------------------------------------------------------------------

* Profile

Discovery Date May 17, 2018
Magnitude 19.9 mag
Discoverer H. Groeller and G. J. Leonard (Mount Lemmon Survey)

* Orbital Elements

Epoch 2019 Aug. 25.0 TT = JDT 2458720.5
T 2019 Sept.  9.46193 TT                                MPCW
q   3.6285403            (2000.0)            P               Q
z  +0.0011457      Peri.  217.62041     -0.42212732     -0.59328703
 +/-0.0000313      Node    91.59321     -0.57126814     +0.76117454
e   0.9958427      Incl.  136.70943     -0.70389007     -0.26196150
From 150 observations 2018 May 17-Aug. 29, mean residual 0".4.

* Finding Charts

* Magnitudes Graph

        m1 = 8.5 + 5 log d + 10.0 log r

---------------------------------------------------------------------

The orbital elements are published on M.P.E.C. 2018-S50.
The charts are made with StellaNavigator Ver.10 (AstroArts).
The magnitudes graphs are made with Comet for Windows.

---------------------------------------------------------------------

Copyright(C) Seiichi Yoshida (comet@aerith.net). All rights reserved.